Time,TemperatureF,DewpointF,PressureIn,WindDirection,WindDirectionDegrees,WindSpeedMPH,WindSpeedGustMPH,Humidity,HourlyPrecipIn,Conditions,Clouds,dailyrainin,SolarRadiationWatts/m^2,SoftwareType,DateUTC
2013-04-16 00:02:00,17.0,13.0,-100.00,NNE,14,3.0,6.0,85,0.00,,,0.00,0.000000,,2013-04-16 08:02:00,
2013-04-16 00:12:00,17.0,13.0,-100.00,NNE,14,3.0,6.0,85,0.00,,,0.00,0.000000,,2013-04-16 08:12:00,
2013-04-16 00:22:00,17.0,13.0,-100.00,NNE,14,3.0,6.0,85,0.00,,,0.00,0.000000,,2013-04-16 08:22:00,
2013-04-16 00:32:00,17.0,13.0,-100.00,NNE,14,3.0,6.0,85,0.00,,,0.00,0.000000,,2013-04-16 08:32:00,
2013-04-16 00:52:00,17.0,14.0,-100.00,NNW,347,2.0,5.0,86,0.00,,,0.00,0.000000,,2013-04-16 08:52:00,
2013-04-16 01:02:00,17.0,14.0,-100.00,NNW,347,2.0,5.0,86,0.00,,,0.00,0.000000,,2013-04-16 09:02:00,
2013-04-16 01:12:00,17.0,14.0,-100.00,NNW,347,2.0,5.0,86,0.00,,,0.00,0.000000,,2013-04-16 09:12:00,
2013-04-16 01:22:00,17.0,14.0,-100.00,NNW,347,2.0,5.0,86,0.00,,,0.00,0.000000,,2013-04-16 09:22:00,
2013-04-16 01:32:00,17.0,14.0,-100.00,NNW,347,2.0,5.0,86,0.00,,,0.00,0.000000,,2013-04-16 09:32:00,
2013-04-16 01:53:00,17.0,13.0,-100.00,NE,37,3.0,9.0,85,0.00,,,0.00,0.000000,,2013-04-16 09:53:00,
2013-04-16 02:03:00,17.0,13.0,-100.00,NE,37,3.0,9.0,85,0.00,,,0.00,0.000000,,2013-04-16 10:03:00,
2013-04-16 02:12:00,17.0,13.0,-100.00,NE,37,3.0,9.0,85,0.00,,,0.00,0.000000,,2013-04-16 10:12:00,
2013-04-16 02:22:00,17.0,13.0,-100.00,NE,37,3.0,9.0,85,0.00,,,0.00,0.000000,,2013-04-16 10:22:00,
2013-04-16 02:32:00,17.0,13.0,-100.00,NE,37,3.0,9.0,85,0.00,,,0.00,0.000000,,2013-04-16 10:32:00,
2013-04-16 02:53:00,17.0,12.0,-100.00,NNE,25,4.0,8.0,82,0.00,,,0.00,0.000000,,2013-04-16 10:53:00,
2013-04-16 03:02:00,17.0,12.0,-100.00,NNE,25,4.0,8.0,82,0.00,,,0.00,0.000000,,2013-04-16 11:02:00,
2013-04-16 03:12:00,17.0,12.0,-100.00,NNE,25,4.0,8.0,82,0.00,,,0.00,0.000000,,2013-04-16 11:12:00,
2013-04-16 03:22:00,17.0,12.0,-100.00,NNE,25,4.0,8.0,82,0.00,,,0.00,0.000000,,2013-04-16 11:22:00,
2013-04-16 03:32:00,17.0,12.0,-100.00,NNE,25,4.0,8.0,82,0.00,,,0.00,0.000000,,2013-04-16 11:32:00,
2013-04-16 03:53:00,17.0,11.0,-100.00,NNE,15,4.0,8.0,78,0.00,,,0.00,0.000000,,2013-04-16 11:53:00,
2013-04-16 04:02:00,17.0,11.0,-100.00,NNE,15,4.0,8.0,78,0.00,,,0.00,0.000000,,2013-04-16 12:02:00,
2013-04-16 04:12:00,17.0,11.0,-100.00,NNE,15,4.0,8.0,78,0.00,,,0.00,0.000000,,2013-04-16 12:12:00,
2013-04-16 04:22:00,17.0,11.0,-100.00,NNE,15,4.0,8.0,78,0.00,,,0.00,0.000000,,2013-04-16 12:22:00,
2013-04-16 04:31:00,17.0,11.0,-100.00,NNE,15,4.0,8.0,78,0.00,,,0.00,0.000000,,2013-04-16 12:31:00,
2013-04-16 04:52:00,17.0,10.0,-100.00,NNW,348,2.0,5.0,75,0.00,,,0.00,0.000000,,2013-04-16 12:52:00,
2013-04-16 05:02:00,17.0,10.0,-100.00,NNW,348,2.0,5.0,75,0.00,,,0.00,0.000000,,2013-04-16 13:02:00,
2013-04-16 05:12:00,17.0,10.0,-100.00,NNW,348,2.0,5.0,75,0.00,,,0.00,0.000000,,2013-04-16 13:12:00,
2013-04-16 05:22:00,17.0,10.0,-100.00,NNW,348,2.0,5.0,75,0.00,,,0.00,0.000000,,2013-04-16 13:22:00,
2013-04-16 05:32:00,17.0,10.0,-100.00,NNW,348,2.0,5.0,75,0.00,,,0.00,0.000000,,2013-04-16 13:32:00,
2013-04-16 05:52:00,17.0,12.0,-100.00,NW,325,3.0,7.0,80,0.00,,,0.00,0.000000,,2013-04-16 13:52:00,
2013-04-16 06:02:00,17.0,12.0,-100.00,NW,325,3.0,7.0,80,0.00,,,0.00,0.000000,,2013-04-16 14:02:00,
2013-04-16 06:12:00,17.0,12.0,-100.00,NW,325,3.0,7.0,80,0.00,,,0.00,0.000000,,2013-04-16 14:12:00,
2013-04-16 06:22:00,17.0,12.0,-100.00,NW,325,3.0,7.0,80,0.00,,,0.00,0.000000,,2013-04-16 14:22:00,
2013-04-16 06:32:00,17.0,12.0,-100.00,NW,325,3.0,7.0,80,0.00,,,0.00,0.000000,,2013-04-16 14:32:00,
2013-04-16 06:52:00,17.0,12.0,-100.00,NW,304,3.0,7.0,79,0.00,,,0.00,2.000000,,2013-04-16 14:52:00,
2013-04-16 07:02:00,17.0,12.0,-100.00,NW,304,3.0,7.0,79,0.00,,,0.00,2.000000,,2013-04-16 15:02:00,
2013-04-16 07:12:00,17.0,12.0,-100.00,NW,304,3.0,7.0,79,0.00,,,0.00,2.000000,,2013-04-16 15:12:00,
2013-04-16 07:22:00,17.0,12.0,-100.00,NW,304,3.0,7.0,79,0.00,,,0.00,2.000000,,2013-04-16 15:22:00,
2013-04-16 07:32:00,17.0,12.0,-100.00,NW,304,3.0,7.0,79,0.00,,,0.00,2.000000,,2013-04-16 15:32:00,
2013-04-16 07:53:00,17.0,11.0,-100.00,WNW,295,7.0,9.0,78,0.00,,,0.00,37.000000,,2013-04-16 15:53:00,
2013-04-16 08:03:00,17.0,11.0,-100.00,WNW,295,7.0,9.0,78,0.00,,,0.00,37.000000,,2013-04-16 16:03:00,
2013-04-16 08:13:00,17.0,11.0,-100.00,WNW,295,7.0,9.0,78,0.00,,,0.00,37.000000,,2013-04-16 16:13:00,
2013-04-16 08:22:00,17.0,11.0,-100.00,WNW,295,7.0,9.0,78,0.00,,,0.00,37.000000,,2013-04-16 16:22:00,
2013-04-16 08:32:00,17.0,11.0,-100.00,WNW,295,7.0,9.0,78,0.00,,,0.00,37.000000,,2013-04-16 16:32:00,
2013-04-16 08:53:00,17.0,12.0,-100.00,NW,307,4.0,8.0,80,0.00,,,0.00,107.000000,,2013-04-16 16:53:00,
2013-04-16 09:02:00,17.0,12.0,-100.00,NW,307,4.0,8.0,80,0.00,,,0.00,107.000000,,2013-04-16 17:02:00,
2013-04-16 09:12:00,17.0,12.0,-100.00,NW,307,4.0,8.0,80,0.00,,,0.00,107.000000,,2013-04-16 17:12:00,
2013-04-16 09:22:00,17.0,12.0,-100.00,NW,307,4.0,8.0,80,0.00,,,0.00,107.000000,,2013-04-16 17:22:00,
2013-04-16 09:32:00,17.0,12.0,-100.00,NW,307,4.0,8.0,80,0.00,,,0.00,107.000000,,2013-04-16 17:32:00,
2013-04-16 09:53:00,18.0,13.0,-100.00,WNW,303,5.0,9.0,79,0.00,,,0.00,253.000000,,2013-04-16 17:53:00,
2013-04-16 10:02:00,18.0,13.0,-100.00,WNW,303,5.0,9.0,79,0.00,,,0.00,253.000000,,2013-04-16 18:02:00,
2013-04-16 10:12:00,18.0,13.0,-100.00,WNW,303,5.0,9.0,79,0.00,,,0.00,253.000000,,2013-04-16 18:12:00,
2013-04-16 10:22:00,18.0,13.0,-100.00,WNW,303,5.0,9.0,79,0.00,,,0.00,253.000000,,2013-04-16 18:22:00,
2013-04-16 10:32:00,18.0,13.0,-100.00,WNW,303,5.0,9.0,79,0.00,,,0.00,253.000000,,2013-04-16 18:32:00,
2013-04-16 10:52:00,18.0,13.0,-100.00,WNW,298,8.0,12.0,79,0.00,,,0.00,310.000000,,2013-04-16 18:52:00,
2013-04-16 11:02:00,18.0,13.0,-100.00,WNW,298,8.0,12.0,79,0.00,,,0.00,310.000000,,2013-04-16 19:02:00,
2013-04-16 11:12:00,18.0,13.0,-100.00,WNW,298,8.0,12.0,79,0.00,,,0.00,310.000000,,2013-04-16 19:12:00,
2013-04-16 11:22:00,18.0,13.0,-100.00,WNW,298,8.0,12.0,79,0.00,,,0.00,310.000000,,2013-04-16 19:22:00,
2013-04-16 11:32:00,18.0,13.0,-100.00,WNW,298,8.0,12.0,79,0.00,,,0.00,310.000000,,2013-04-16 19:32:00,
2013-04-16 11:52:00,19.0,13.0,-100.00,NW,310,6.0,9.0,77,0.00,,,0.00,433.000000,,2013-04-16 19:52:00,
2013-04-16 12:02:00,19.0,13.0,-100.00,NW,310,6.0,9.0,77,0.00,,,0.00,433.000000,,2013-04-16 20:02:00,
2013-04-16 12:12:00,19.0,13.0,-100.00,NW,310,6.0,9.0,77,0.00,,,0.00,433.000000,,2013-04-16 20:12:00,
2013-04-16 12:22:00,19.0,13.0,-100.00,NW,310,6.0,9.0,77,0.00,,,0.00,433.000000,,2013-04-16 20:22:00,
2013-04-16 12:32:00,19.0,13.0,-100.00,NW,310,6.0,9.0,77,0.00,,,0.00,433.000000,,2013-04-16 20:32:00,
2013-04-16 12:52:00,20.0,13.0,-100.00,North,359,3.0,9.0,75,0.00,,,0.00,437.000000,,2013-04-16 20:52:00,
2013-04-16 13:02:00,20.0,13.0,-100.00,North,359,3.0,9.0,75,0.00,,,0.00,437.000000,,2013-04-16 21:02:00,
2013-04-16 13:12:00,20.0,13.0,-100.00,North,359,3.0,9.0,75,0.00,,,0.00,437.000000,,2013-04-16 21:12:00,
2013-04-16 13:22:00,20.0,13.0,-100.00,North,359,3.0,9.0,75,0.00,,,0.00,437.000000,,2013-04-16 21:22:00,
2013-04-16 13:32:00,20.0,13.0,-100.00,North,359,3.0,9.0,75,0.00,,,0.00,437.000000,,2013-04-16 21:32:00,
2013-04-16 13:53:00,21.0,14.0,-100.00,NW,308,5.0,10.0,73,0.00,,,0.00,609.000000,,2013-04-16 21:53:00,
2013-04-16 14:02:00,21.0,14.0,-100.00,NW,308,5.0,10.0,73,0.00,,,0.00,609.000000,,2013-04-16 22:02:00,
2013-04-16 14:12:00,21.0,14.0,-100.00,NW,308,5.0,10.0,73,0.00,,,0.00,609.000000,,2013-04-16 22:12:00,
2013-04-16 14:22:00,21.0,14.0,-100.00,NW,308,5.0,10.0,73,0.00,,,0.00,609.000000,,2013-04-16 22:22:00,
2013-04-16 14:32:00,21.0,14.0,-100.00,NW,308,5.0,10.0,73,0.00,,,0.00,609.000000,,2013-04-16 22:32:00,
2013-04-16 14:52:00,24.0,14.0,-100.00,North,352,2.0,5.0,65,0.00,,,0.00,618.000000,,2013-04-16 22:52:00,
2013-04-16 15:02:00,24.0,14.0,-100.00,North,352,2.0,5.0,65,0.00,,,0.00,618.000000,,2013-04-16 23:02:00,
2013-04-16 15:12:00,24.0,14.0,-100.00,North,352,2.0,5.0,65,0.00,,,0.00,618.000000,,2013-04-16 23:12:00,
2013-04-16 15:22:00,24.0,14.0,-100.00,North,352,2.0,5.0,65,0.00,,,0.00,618.000000,,2013-04-16 23:22:00,
2013-04-16 15:32:00,24.0,14.0,-100.00,North,352,2.0,5.0,65,0.00,,,0.00,618.000000,,2013-04-16 23:32:00,
2013-04-16 15:52:00,24.0,14.0,-100.00,NNE,23,2.0,4.0,64,0.00,,,0.00,538.000000,,2013-04-16 23:52:00,
2013-04-16 16:02:00,24.0,14.0,-100.00,NNE,23,2.0,4.0,64,0.00,,,0.00,538.000000,,2013-04-17 00:02:00,
2013-04-16 16:12:00,24.0,14.0,-100.00,NNE,23,2.0,4.0,64,0.00,,,0.00,538.000000,,2013-04-17 00:12:00,
2013-04-16 16:22:00,24.0,14.0,-100.00,NNE,23,2.0,4.0,64,0.00,,,0.00,538.000000,,2013-04-17 00:22:00,
2013-04-16 16:32:00,24.0,14.0,-100.00,NNE,23,2.0,4.0,64,0.00,,,0.00,538.000000,,2013-04-17 00:32:00,
2013-04-16 16:52:00,25.0,15.0,-100.00,NNE,15,2.0,5.0,64,0.00,,,0.00,427.000000,,2013-04-17 00:52:00,
2013-04-16 17:02:00,25.0,15.0,-100.00,NNE,15,2.0,5.0,64,0.00,,,0.00,427.000000,,2013-04-17 01:02:00,
2013-04-16 17:12:00,25.0,15.0,-100.00,NNE,15,2.0,5.0,64,0.00,,,0.00,427.000000,,2013-04-17 01:12:00,
2013-04-16 17:22:00,25.0,15.0,-100.00,NNE,15,2.0,5.0,64,0.00,,,0.00,427.000000,,2013-04-17 01:22:00,
2013-04-16 17:32:00,25.0,15.0,-100.00,NNE,15,2.0,5.0,64,0.00,,,0.00,427.000000,,2013-04-17 01:32:00,
2013-04-16 17:52:00,26.0,14.0,-100.00,NNE,13,1.0,3.0,59,0.00,,,0.00,376.000000,,2013-04-17 01:52:00,
2013-04-16 18:02:00,26.0,14.0,-100.00,NNE,13,1.0,3.0,59,0.00,,,0.00,376.000000,,2013-04-17 02:02:00,
2013-04-16 18:12:00,26.0,14.0,-100.00,NNE,13,1.0,3.0,59,0.00,,,0.00,376.000000,,2013-04-17 02:12:00,
2013-04-16 18:22:00,26.0,14.0,-100.00,NNE,13,1.0,3.0,59,0.00,,,0.00,376.000000,,2013-04-17 02:22:00,
2013-04-16 18:32:00,26.0,14.0,-100.00,NNE,13,1.0,3.0,59,0.00,,,0.00,376.000000,,2013-04-17 02:32:00,
2013-04-16 18:52:00,24.0,16.0,-100.00,WNW,298,2.0,5.0,72,0.00,,,0.00,237.000000,,2013-04-17 02:52:00,
2013-04-16 19:02:00,24.0,16.0,-100.00,WNW,298,2.0,5.0,72,0.00,,,0.00,237.000000,,2013-04-17 03:02:00,
2013-04-16 19:12:00,24.0,16.0,-100.00,WNW,298,2.0,5.0,72,0.00,,,0.00,237.000000,,2013-04-17 03:12:00,
2013-04-16 19:22:00,24.0,16.0,-100.00,WNW,298,2.0,5.0,72,0.00,,,0.00,237.000000,,2013-04-17 03:22:00,
2013-04-16 19:32:00,24.0,16.0,-100.00,WNW,298,2.0,5.0,72,0.00,,,0.00,237.000000,,2013-04-17 03:32:00,
2013-04-16 19:53:00,23.0,17.0,-100.00,West,275,1.0,3.0,78,0.00,,,0.00,168.000000,,2013-04-17 03:53:00,
2013-04-16 20:03:00,23.0,17.0,-100.00,West,275,1.0,3.0,78,0.00,,,0.00,168.000000,,2013-04-17 04:03:00,
2013-04-16 20:13:00,23.0,17.0,-100.00,West,275,1.0,3.0,78,0.00,,,0.00,168.000000,,2013-04-17 04:13:00,
2013-04-16 20:22:00,23.0,17.0,-100.00,West,275,1.0,3.0,78,0.00,,,0.00,168.000000,,2013-04-17 04:22:00,
2013-04-16 20:32:00,23.0,17.0,-100.00,West,275,1.0,3.0,78,0.00,,,0.00,168.000000,,2013-04-17 04:32:00,
2013-04-16 20:52:00,23.0,18.0,-100.00,WNW,289,0.0,3.0,81,0.00,,,0.00,43.000000,,2013-04-17 04:52:00,
2013-04-16 21:02:00,23.0,18.0,-100.00,WNW,289,0.0,3.0,81,0.00,,,0.00,43.000000,,2013-04-17 05:02:00,
2013-04-16 21:12:00,23.0,18.0,-100.00,WNW,289,0.0,3.0,81,0.00,,,0.00,43.000000,,2013-04-17 05:12:00,
2013-04-16 21:22:00,23.0,18.0,-100.00,WNW,289,0.0,3.0,81,0.00,,,0.00,43.000000,,2013-04-17 05:22:00,
2013-04-16 21:32:00,23.0,18.0,-100.00,WNW,289,0.0,3.0,81,0.00,,,0.00,43.000000,,2013-04-17 05:32:00,
2013-04-16 21:52:00,21.0,17.0,-100.00,NNE,28,1.0,4.0,84,0.00,,,0.00,1.000000,,2013-04-17 05:52:00,
2013-04-16 22:02:00,21.0,17.0,-100.00,NNE,28,1.0,4.0,84,0.00,,,0.00,1.000000,,2013-04-17 06:02:00,
2013-04-16 22:12:00,21.0,17.0,-100.00,NNE,28,1.0,4.0,84,0.00,,,0.00,1.000000,,2013-04-17 06:12:00,
2013-04-16 22:22:00,21.0,17.0,-100.00,NNE,28,1.0,4.0,84,0.00,,,0.00,1.000000,,2013-04-17 06:22:00,
2013-04-16 22:32:00,21.0,17.0,-100.00,NNE,28,1.0,4.0,84,0.00,,,0.00,1.000000,,2013-04-17 06:32:00,
2013-04-16 22:52:00,20.0,15.0,-100.00,NNE,24,2.0,5.0,81,0.00,,,0.00,0.000000,,2013-04-17 06:52:00,
2013-04-16 23:02:00,20.0,15.0,-100.00,NNE,24,2.0,5.0,81,0.00,,,0.00,0.000000,,2013-04-17 07:02:00,
2013-04-16 23:12:00,20.0,15.0,-100.00,NNE,24,2.0,5.0,81,0.00,,,0.00,0.000000,,2013-04-17 07:12:00,
2013-04-16 23:22:00,20.0,15.0,-100.00,NNE,24,2.0,5.0,81,0.00,,,0.00,0.000000,,2013-04-17 07:22:00,
2013-04-16 23:32:00,20.0,15.0,-100.00,NNE,24,2.0,5.0,81,0.00,,,0.00,0.000000,,2013-04-17 07:32:00,
2013-04-16 23:52:00,20.0,14.0,-100.00,NW,318,3.0,5.0,78,0.00,,,0.00,0.000000,,2013-04-17 07:52:00,